[TLELIST] Archives

 

[list_settings.list_name] Current TLEs

August 11th 2021 PDT

HST 1 20580U 90037B 21222.92552307 .00000489 00000-0 18560-4 0 9991 2 20580 28.4706 64.6379 0002534 291.1372 172.4854 15.09701289519253 ISS (ZARYA) 1 25544U 98067A 21223.45843611 .00000726 00000-0 21375-4 0 9999 2 25544 51.6439 69.3961 0001266 290.9886 142.1102 15.48889835297166 CXO 1 25867U 99040B 21223.64782241 .00000632 00000-0 00000-0 0 9995 2 25867 53.7582 252.9335 8407955 226.8645 0.5211 0.37813727 10659 ____________________________________________________________________ These 2-Line ...Continue Reading

[list_settings.list_name] Current TLEs

August 10th 2021 PDT

HST 1 20580U 90037B 21222.00891497 .00000543 00000-0 21834-4 0 9995 2 20580 28.4705 70.7032 0002526 280.4907 231.5603 15.09700952519369 ISS (ZARYA) 1 25544U 98067A 21222.42415126 .00001146 00000-0 29027-4 0 9990 2 25544 51.6431 74.5164 0001375 281.2480 140.8763 15.48889005297005 CXO 1 25867U 99040B 21223.64782241 .00000632 00000-0 00000-0 0 9995 2 25867 53.7582 252.9335 8407955 226.8645 0.5211 0.37813727 10659 ____________________________________________________________________ These 2-Line ...Continue Reading

[list_settings.list_name] Current TLEs

August 9th 2021 PDT

HST 1 20580U 90037B 21220.92694431 .00000558 00000-0 22729-4 0 9993 2 20580 28.4704 77.8626 0002525 267.8660 112.1011 15.09700273518956 ISS (ZARYA) 1 25544U 98067A 21221.38133102 .00001155 00000-0 29197-4 0 9993 2 25544 51.6437 79.6691 0001286 279.4591 84.0733 15.48886208296844 CXO 1 25867U 99040B 21221.00234936 .00000622 00000-0 00000-0 0 9995 2 25867 53.8442 253.0842 8405282 226.8086 0.4704 0.37807353 10643 ____________________________________________________________________ These 2-Line ...Continue Reading

[list_settings.list_name] Current TLEs

August 8th 2021 PDT

HST 1 20580U 90037B 21219.81674014 .00000565 00000-0 23189-4 0 9993 2 20580 28.4702 85.2089 0002536 254.9001 199.2351 15.09699509518781 ISS (ZARYA) 1 25544U 98067A 21220.41346065 .00000557 00000-0 18297-4 0 9994 2 25544 51.6442 84.4574 0001240 269.3404 93.7940 15.48880777296690 CXO 1 25867U 99040B 21221.00234936 .00000622 00000-0 00000-0 0 9995 2 25867 53.8442 253.0842 8405282 226.8086 0.4704 0.37807353 10643 ____________________________________________________________________ These 2-Line ...Continue Reading

[list_settings.list_name] Current TLEs

August 7th 2021 PDT

HST 1 20580U 90037B 21219.03188005 .00000521 00000-0 20511-4 0 9995 2 20580 28.4701 90.4025 0002547 245.9676 254.0605 15.09698636518915 ISS (ZARYA) 1 25544U 98067A 21219.08610569 .00000949 00000-0 25444-4 0 9995 2 25544 51.6433 91.0271 0001374 260.4652 256.5001 15.48879336296486 CXO 1 25867U 99040B 21221.00234936 .00000622 00000-0 00000-0 0 9995 2 25867 53.8442 253.0842 8405282 226.8086 0.4704 0.37807353 10643 ____________________________________________________________________ These 2-Line ...Continue Reading

[list_settings.list_name] Current TLEs

August 6th 2021 PDT

HST 1 20580U 90037B 21217.95207838 .00000546 00000-0 22020-4 0 9994 2 20580 28.4700 97.5480 0002576 233.5122 146.2520 15.09697998518747 ISS (ZARYA) 1 25544U 98067A 21218.18035337 .00001654 00000-0 38302-4 0 9990 2 25544 51.6445 95.4989 0001217 254.7652 248.4390 15.48879828296347 CXO 1 25867U 99040B 21218.35714395 .00000512 00000-0 00000-0 0 9999 2 25867 53.9065 253.2039 8401720 226.7671 0.4433 0.37804469 10630 ____________________________________________________________________ These 2-Line ...Continue Reading

[list_settings.list_name] Current TLEs

August 5th 2021 PDT

HST 1 20580U 90037B 21216.90995098 .00000562 00000-0 23003-4 0 9990 2 20580 28.4699 104.4438 0002612 221.7067 242.9587 15.09697314518584 ISS (ZARYA) 1 25544U 98067A 21217.41094036 .00001714 00000-0 39399-4 0 9990 2 25544 51.6441 99.3030 0001228 256.1622 273.9991 15.48877353296226 CXO 1 25867U 99040B 21218.35714395 .00000512 00000-0 00000-0 0 9999 2 25867 53.9065 253.2039 8401720 226.7671 0.4433 0.37804469 10630 ____________________________________________________________________ These 2-Line ...Continue Reading

[list_settings.list_name] Current TLEs

August 4th 2021 PDT

HST 1 20580U 90037B 21215.77803729 .00000543 00000-0 21833-4 0 9991 2 20580 28.4698 111.9338 0002645 209.1043 211.5168 15.09696290518416 ISS (ZARYA) 1 25544U 98067A 21216.47572917 .00001290 00000-0 31671-4 0 9998 2 25544 51.6439 103.9283 0001172 247.3319 104.6908 15.48871407296073 CXO 1 25867U 99040B 21218.35619252 .00000512 00000-0 00000-0 0 9995 2 25867 53.9065 253.2038 8401718 226.7671 0.3132 0.37804595 10620 ____________________________________________________________________ These 2-Line ...Continue Reading

[list_settings.list_name] Current TLEs

August 3rd 2021 PDT

HST 1 20580U 90037B 21214.47470211 .00000531 00000-0 21128-4 0 9997 2 20580 28.4698 120.5582 0002687 194.8298 328.2442 15.09695163517970 ISS (ZARYA) 1 25544U 98067A 21214.88086691 -.00000636 00000-0 -34509-5 0 9999 2 25544 51.6433 111.8195 0001239 241.3032 212.0072 15.48861899295830 CXO 1 25867U 99040B 21215.71111934 .00000378 00000-0 00000+0 0 9995 2 25867 53.9655 253.3152 8397908 226.7303 0.2802 0.37804517 21753 ____________________________________________________________________ These 2-Line ...Continue Reading

[list_settings.list_name] Current TLEs

August 2nd 2021 PDT

HST 1 20580U 90037B 21213.86310130 .00000580 00000-0 24080-4 0 9996 2 20580 28.4698 124.6053 0002716 188.1450 244.3484 15.09694903517882 ISS (ZARYA) 1 25544U 98067A 21214.50743859 -.00000371 00000-0 13851-5 0 9996 2 25544 51.6440 113.6667 0001196 235.5888 294.1457 15.48861213295779 CXO 1 25867U 99040B 21215.71111934 .00000378 00000-0 00000+0 0 9995 2 25867 53.9655 253.3152 8397908 226.7303 0.2802 0.37804517 21753 ____________________________________________________________________ These 2-Line ...Continue Reading
  • This mailing list is a public mailing list - anyone may join or leave, at any time.
  • This mailing list is announce-only.

International Space Station (ISS) / Hubble Space Telescope (HST) / Chandra X-Ray Observatory Orbital Data via EMAIL

Privacy Policy:

Private list